ONEWEB-0059 (45162 NORAD) Tracking and Keplerian Element Data

This shows tracking and keplerian element data for the satellite.

Feedback or suggestion? Click here.




ElementValue
Catalog45162
NameONEWEB-0059
Epoch Orbit923
Epoch Day93.57284266
Epoch Year2020
RAAN145.4633
Inclination87.5361
Eccentricity0.0023576
Argument of Perigee96.793
Mean Anonmoly263.5982
Mean Motion14.91339463
Decay Rate-0.00194944
L11 45162U 20008AH 20093.57284266 -.00194944 00000-0 -20022-1 0 9992
L22 45162 87.5361 145.4633 0023576 96.7930 263.5982 14.91339463 9235

Live tracking and technical data element details for ONEWEB-0059 (NORAD 45162). ONEWEB-0059 can be tracked NOW for your location showing map with azimuth and elevation plus other details from your city location.

Track the satellite on the map from your city or location and see movement details for azimuth, elevation, latitude, longitude, range, height, and movement on the map or in text.







IsCatalogInMostPopularTable: catalog: 45162, numindb: 14
Update: records affected: 1



GetName: 45162 ONEWEB-0059

Hit Count: updated at: Tue, 07 Apr 2020 17:36:29 GMT